SCP
-0 -0 -0 -0 -0 -0 -0 -0 -0 -0 -0 0 0 0 0 0 0 0 0 0 0 0 0 0 0 0 0 0 0 0 0 0
-0 -0 -0 -0 -0 -0 -0 -0 -0 -0 -0 -0 -0 -0 0 0 0 0 0 -0 -0 0 0 0 0 0 0 0 0 0 0 0
0 -0 0 0 0 0 0 0 0 0 0 0 0 -0 -0 -0 0 0 0 0 0 0 -0 -0 -0 0 0 0 0 0 0 0
-0 0 0 0 0 0 0 0 0 0 0 0 0 0 -0 -0 -0 0 0 0 0 0 0 0 -0 -0 0 0 0 0 0 0
0 0 0 0 0 0 0 0 0 0 0 0 0 0 0 -0 -0 -0 -0 -0 -0 0 0 0 0 0 0 0 0 0 0 0
0 0 0 0 0 0 0 0 0 0 0 0 0 0 0 -0 -0 -0 -0 -0 -0 0 0 0 0 0 0 0 0 0 0 0
-0 -0 -0 -0 -0 -0 0 0 0 0 0 0 0 0 0 0 -0 -0 -0 -0 0 0 0 0 0 0 0 0 0 0 0 0
-0 -0 -0 -0 -0 -0 -0 0 0 0 0 0 0 0 0 0 0 -0 -0 -0 -0 -0 -0 0 0 0 0 0 0 0 0 0
0 -0 0 0 -0 -0 -0 0 0 0 0 0 0 0 0 0 0 0 -0 -0 -0 -0 -0 0 0 0 0 0 0 0 0 0
0 0 0 0 0 0 0 -0 -0 0 0 0 0 0 0 0 0 0 0 0 0 0 0 0 0 -0 0 0 0 0 0 0
0 0 0 0 0 0 0 0 0 0 0 0 0 0 0 0 0 0 0 0 0 0 0 0 0 -0 -0 -0 0 0 0 0
0 0 0 0 0 0 0 0 0 0 0 0 0 0 0 0 0 0 0 0 0 0 0 0 0 0 -0 -0 0 0 0 0
0 0 0 0 0 0 0 0 0 0 0 0 0 0 0 0 0 0 0 0 0 0 0 0 0 0 0 -0 -0 0 0 0
0 0 0 0 0 0 0 0 0 0 0 0 0 0 0 0 0 0 0 0 0 0 0 0 0 0 0 0 0 -0 0 0
0 0 0 0 0 0 0 0 0 0 0 0 0 0 0 0 0 0 0 0 0 0 0 0 0 0 0 0 0 0 0 0
0 0 0 0 0 0 0 0 0 0 0 0 0 0 0 0 0 0 0 0 0 0 0 0 0 0 0 0 0 0 0 0
0 0 0 0 0 0 0 0 0 0 0 0 0 0 0 0 0 0 0 0 0 0 0 0 0 0 0 0 0 0 0 0
0 0 0 0 0 0 0 0 0 0 0 0 0 0 0 0 0 0 0 0 -0 -0 0 0 0 0 0 0 0 0 0 0
0 0 0 0 0 0 0 0 0 0 0 0 0 0 0 0 0 0 0 0 0 0 0 0 0 0 0 0 0 0 0 0
0 0 0 0 0 0 0 0 0 0 0 0 0 0 0 0 0 0 0 0 0 0 0 0 0 0 0 0 0 0 0 0
Wind_Speed_500mb
28 29 32 35 33 36 41 44 44 44 39 32 35 38 41 44 44 42 42 41 42 45 49 49 54 57 64 72 80 92 106 111
20 22 23 25 27 29 37 40 47 54 54 54 51 49 41 35 39 46 49 48 45 43 44 50 55 56 62 71 75 82 90 103
21 21 25 30 35 41 44 48 51 54 54 52 51 52 51 53 51 47 44 47 52 53 51 47 48 55 62 68 74 80 87 90
19 25 27 32 36 38 42 45 46 49 53 55 58 60 58 59 59 58 57 54 51 52 56 56 52 52 56 64 71 77 80 88
17 20 21 24 31 37 41 44 48 50 53 56 60 65 67 67 68 68 66 65 61 57 56 57 58 56 55 59 67 74 79 84
16 19 22 29 35 41 44 48 53 59 62 66 69 71 72 74 76 78 78 76 73 69 67 65 62 61 62 60 62 68 77 86
21 21 22 24 30 39 43 46 53 59 65 71 77 81 87 92 96 93 92 88 86 83 80 78 75 72 65 64 68 67 72 85
25 24 24 27 35 45 50 57 63 66 71 75 80 84 87 89 93 97 102 108 106 99 95 92 90 86 81 74 72 74 77 84
36 35 31 32 33 35 46 64 69 73 78 78 79 83 87 91 96 102 106 108 110 115 114 112 107 101 96 90 87 81 79 83
41 35 36 33 34 63 75 74 68 67 73 78 85 91 99 104 108 110 116 118 120 121 123 126 128 120 111 104 96 94 94 85
42 56 50 57 72 76 80 80 76 72 75 75 77 84 98 111 120 125 129 132 133 135 133 133 135 135 126 114 103 101 101 94
46 57 66 74 82 90 86 76 76 84 93 97 92 87 91 96 101 105 109 114 132 139 141 140 136 137 133 114 91 102 99 95
62 71 79 83 87 94 101 97 99 102 106 108 108 108 106 99 101 95 95 100 111 111 125 138 136 127 118 80 76 89 82 87
67 76 80 83 88 100 108 106 107 106 108 109 110 107 101 94 94 93 88 90 96 94 99 108 107 104 88 75 73 76 78 89
69 77 85 90 96 99 99 98 102 107 109 105 95 93 87 83 79 79 80 82 84 83 86 89 89 86 71 61 61 65 72 77
68 79 88 93 95 92 92 93 97 99 97 94 89 82 83 81 80 79 82 82 88 89 91 92 97 87 74 66 69 56 62 56
72 81 87 88 89 88 86 86 89 92 88 85 85 84 82 83 86 77 75 77 79 83 89 97 101 94 89 85 81 80 65 65
75 80 79 78 83 79 80 80 78 79 81 83 86 86 84 82 82 89 91 78 75 76 77 79 85 83 81 80 77 75 72 79
72 70 68 73 78 76 75 72 76 77 79 81 81 81 81 82 84 85 88 90 94 79 68 68 68 68 68 68 65 74 73 77
63 60 62 68 72 73 71 73 75 75 75 75 76 79 81 85 85 85 83 84 87 87 72 58 48 51 56 57 70 71 54 64
Wind_Direction_500mb
22 20 17 16 14 9 10 8 7 11 13 6 2 353 348 347 345 344 343 335 318 302 291 285 283 279 270 263 259 255 253 251
9 17 18 14 11 9 8 6 2 360 359 0 1 358 352 340 334 335 336 336 334 328 309 296 287 280 276 270 263 259 256 253
10 6 6 3 359 359 355 354 355 353 351 351 349 349 349 347 346 341 329 324 326 326 324 317 299 288 277 272 269 263 258 257
360 359 354 350 349 345 344 343 343 341 340 342 342 341 340 340 339 338 335 333 327 321 319 316 314 299 284 276 272 269 266 261
351 345 341 342 338 335 337 336 334 331 330 330 329 330 329 328 328 329 330 328 326 324 322 319 313 305 299 287 278 272 268 263
308 311 323 326 327 327 325 323 321 321 322 321 320 319 317 317 318 319 320 320 321 320 317 317 317 314 309 299 288 280 275 267
279 285 292 299 309 314 315 312 312 312 312 311 311 311 311 313 314 313 313 313 314 315 315 313 311 313 314 307 296 284 276 273
289 294 291 292 307 314 312 312 311 309 308 307 305 302 302 302 302 303 305 308 309 308 308 307 307 308 309 308 301 291 283 273
291 293 293 297 299 292 298 308 307 306 305 303 301 300 299 300 299 299 299 299 299 301 302 301 299 300 302 304 303 296 284 279
291 291 295 303 298 309 313 312 306 298 300 302 302 300 299 297 295 294 294 293 292 293 293 294 294 294 295 297 297 295 292 284
285 291 299 300 309 313 312 311 307 303 298 294 290 289 292 295 296 295 292 290 289 286 285 285 286 288 289 290 290 290 289 286
295 293 301 308 311 311 312 310 307 302 300 297 294 289 285 286 285 287 287 287 288 286 282 280 279 281 283 282 276 281 282 279
298 301 303 307 309 309 310 312 308 306 304 301 299 296 293 289 287 285 283 283 284 286 287 283 279 279 279 273 266 272 267 269
301 303 306 308 311 311 312 312 310 307 306 305 304 302 301 297 292 289 285 281 279 278 279 282 284 282 278 272 265 264 262 268
304 307 309 310 313 314 314 314 311 309 308 308 308 308 307 303 295 289 286 284 281 280 278 280 281 280 282 282 272 262 266 264
306 307 309 314 315 316 317 316 313 311 310 310 309 306 302 296 292 289 286 282 282 280 279 278 278 277 278 271 270 276 281 281
308 310 315 317 316 319 319 317 315 312 310 309 306 302 299 296 294 295 289 288 284 281 278 278 277 277 275 272 271 267 269 266
312 315 318 317 317 324 323 320 314 313 313 312 310 305 299 296 295 295 300 296 290 286 283 280 279 277 274 270 267 263 258 259
314 317 318 319 325 330 323 324 323 319 316 312 309 304 300 297 296 295 294 295 299 305 294 288 284 279 273 269 264 262 248 254
316 320 322 325 330 329 333 329 325 322 321 321 316 310 306 303 300 298 296 295 299 310 315 315 302 287 279 266 261 259 250 235
Wind_Speed_850mb
28 29 32 35 33 36 41 44 44 44 39 32 35 38 41 44 44 42 42 41 42 45 49 49 54 57 64 72 80 92 106 111
20 22 23 25 27 29 37 40 47 54 54 54 51 49 41 35 39 46 49 48 45 43 44 50 55 56 62 71 75 82 90 103
21 21 25 30 35 41 44 48 51 54 54 52 51 52 51 53 51 47 44 47 52 53 51 47 48 55 62 68 74 80 87 90
19 25 27 32 36 38 42 45 46 49 53 55 58 60 58 59 59 58 57 54 51 52 56 56 52 52 56 64 71 77 80 88
17 20 21 24 31 37 41 44 48 50 53 56 60 65 67 67 68 68 66 65 61 57 56 57 58 56 55 59 67 74 79 84
16 19 22 29 35 41 44 48 53 59 62 66 69 71 72 74 76 78 78 76 73 69 67 65 62 61 62 60 62 68 77 86
21 21 22 24 30 39 43 46 53 59 65 71 77 81 87 92 96 93 92 88 86 83 80 78 75 72 65 64 68 67 72 85
25 24 24 27 35 45 50 57 63 66 71 75 80 84 87 89 93 97 102 108 106 99 95 92 90 86 81 74 72 74 77 84
36 35 31 32 33 35 46 64 69 73 78 78 79 83 87 91 96 102 106 108 110 115 114 112 107 101 96 90 87 81 79 83
41 35 36 33 34 63 75 74 68 67 73 78 85 91 99 104 108 110 116 118 120 121 123 126 128 120 111 104 96 94 94 85
42 56 50 57 72 76 80 80 76 72 75 75 77 84 98 111 120 125 129 132 133 135 133 133 135 135 126 114 103 101 101 94
46 57 66 74 82 90 86 76 76 84 93 97 92 87 91 96 101 105 109 114 132 139 141 140 136 137 133 114 91 102 99 95
62 71 79 83 87 94 101 97 99 102 106 108 108 108 106 99 101 95 95 100 111 111 125 138 136 127 118 80 76 89 82 87
67 76 80 83 88 100 108 106 107 106 108 109 110 107 101 94 94 93 88 90 96 94 99 108 107 104 88 75 73 76 78 89
69 77 85 90 96 99 99 98 102 107 109 105 95 93 87 83 79 79 80 82 84 83 86 89 89 86 71 61 61 65 72 77
68 79 88 93 95 92 92 93 97 99 97 94 89 82 83 81 80 79 82 82 88 89 91 92 97 87 74 66 69 56 62 56
72 81 87 88 89 88 86 86 89 92 88 85 85 84 82 83 86 77 75 77 79 83 89 97 101 94 89 85 81 80 65 65
75 80 79 78 83 79 80 80 78 79 81 83 86 86 84 82 82 89 91 78 75 76 77 79 85 83 81 80 77 75 72 79
72 70 68 73 78 76 75 72 76 77 79 81 81 81 81 82 84 85 88 90 94 79 68 68 68 68 68 68 65 74 73 77
63 60 62 68 72 73 71 73 75 75 75 75 76 79 81 85 85 85 83 84 87 87 72 58 48 51 56 57 70 71 54 64
Wind_Direction_850mb
22 20 17 16 14 9 10 8 7 11 13 6 2 353 348 347 345 344 343 335 318 302 291 285 283 279 270 263 259 255 253 251
9 17 18 14 11 9 8 6 2 360 359 0 1 358 352 340 334 335 336 336 334 328 309 296 287 280 276 270 263 259 256 253
10 6 6 3 359 359 355 354 355 353 351 351 349 349 349 347 346 341 329 324 326 326 324 317 299 288 277 272 269 263 258 257
360 359 354 350 349 345 344 343 343 341 340 342 342 341 340 340 339 338 335 333 327 321 319 316 314 299 284 276 272 269 266 261
351 345 341 342 338 335 337 336 334 331 330 330 329 330 329 328 328 329 330 328 326 324 322 319 313 305 299 287 278 272 268 263
308 311 323 326 327 327 325 323 321 321 322 321 320 319 317 317 318 319 320 320 321 320 317 317 317 314 309 299 288 280 275 267
279 285 292 299 309 314 315 312 312 312 312 311 311 311 311 313 314 313 313 313 314 315 315 313 311 313 314 307 296 284 276 273
289 294 291 292 307 314 312 312 311 309 308 307 305 302 302 302 302 303 305 308 309 308 308 307 307 308 309 308 301 291 283 273
291 293 293 297 299 292 298 308 307 306 305 303 301 300 299 300 299 299 299 299 299 301 302 301 299 300 302 304 303 296 284 279
291 291 295 303 298 309 313 312 306 298 300 302 302 300 299 297 295 294 294 293 292 293 293 294 294 294 295 297 297 295 292 284
285 291 299 300 309 313 312 311 307 303 298 294 290 289 292 295 296 295 292 290 289 286 285 285 286 288 289 290 290 290 289 286
295 293 301 308 311 311 312 310 307 302 300 297 294 289 285 286 285 287 287 287 288 286 282 280 279 281 283 282 276 281 282 279
298 301 303 307 309 309 310 312 308 306 304 301 299 296 293 289 287 285 283 283 284 286 287 283 279 279 279 273 266 272 267 269
301 303 306 308 311 311 312 312 310 307 306 305 304 302 301 297 292 289 285 281 279 278 279 282 284 282 278 272 265 264 262 268
304 307 309 310 313 314 314 314 311 309 308 308 308 308 307 303 295 289 286 284 281 280 278 280 281 280 282 282 272 262 266 264
306 307 309 314 315 316 317 316 313 311 310 310 309 306 302 296 292 289 286 282 282 280 279 278 278 277 278 271 270 276 281 281
308 310 315 317 316 319 319 317 315 312 310 309 306 302 299 296 294 295 289 288 284 281 278 278 277 277 275 272 271 267 269 266
312 315 318 317 317 324 323 320 314 313 313 312 310 305 299 296 295 295 300 296 290 286 283 280 279 277 274 270 267 263 258 259
314 317 318 319 325 330 323 324 323 319 316 312 309 304 300 297 296 295 294 295 299 305 294 288 284 279 273 269 264 262 248 254
316 320 322 325 330 329 333 329 325 322 321 321 316 310 306 303 300 298 296 295 299 310 315 315 302 287 279 266 261 259 250 235